Flight Track Log - Related Links

Times and Time Zones

All times are in EDT time to prevent confusion due to time zone crossing. See the DAL6196 flight status page for this flight to view local times or setup timezone preferences in your user account.

Time Position Orientation Groundspeed Altitude Reporting Facility
EDT Latitude Longitude Course Direction KTS MPH feet Rate Location/Type
Sun 13:17:45 35.9008 -78.7794 39° Northeast 149 171 1,600  Level Washington Center
Sun 13:19:04 35.9622 -78.7483 22° Northeast 213 245 4,200 2,031 Climbing Washington Center
Sun 13:19:52 36.0131 -78.7197 24° Northeast 255 293 5,900 2,057 Climbing Washington Center
Sun 13:20:14 36.0322 -78.6972 44° Northeast 284 327 6,600 1,902 Climbing Washington Center
Sun 13:21:14 36.0881 -78.6403 39° Northeast 284 327 8,500 1,934 Climbing Washington Center
Sun 13:22:15 36.1394 -78.5858 41° Northeast 278 320 10,500 1,785 Climbing Washington Center
Sun 13:23:00 36.3611 -78.3223 39° Northeast  Level FlightAware Approximate
Sun 13:23:15 36.2144 -78.5064 41° Northeast 296 341 12,100  Level Washington Center
Sun 13:24:13 36.2853 -78.4317 40° Northeast 346 398 13,200 1,475 Climbing Washington Center
Sun 13:25:13 36.3772 -78.3342 40° Northeast 384 442 15,000 1,636 Climbing Washington Center
Sun 13:26:14 36.4689 -78.2394 40° Northeast 402 463 16,500 1,488 Climbing Washington Center
Sun 13:27:14 36.5608 -78.1469 39° Northeast 413 475 18,000 1,550 Climbing Washington Center
Sun 13:28:14 36.6567 -78.0542 38° Northeast 418 481 19,600 1,587 Climbing Washington Center
Sun 13:29:15 36.7503 -77.9639 38° Northeast 430 495 21,200 1,412 Climbing Washington Center
Sun 13:30:13 36.8458 -77.8656 39° Northeast 430 495 22,400 1,220 Climbing Washington Center
Sun 13:31:13 36.9233 -77.7431 52° Northeast 430 495 23,600 1,140 Climbing Washington Center
Sun 13:32:14 37.0028 -77.6206 51° Northeast 436 502 24,700 1,041 Climbing Washington Center
Sun 13:33:14 37.0861 -77.4925 51° Northeast 455 524 25,700 992 Climbing Washington Center
Sun 13:34:15 37.1653 -77.3667 52° Northeast 462 532 26,700 984 Climbing Washington Center
Sun 13:35:16 37.2483 -77.2408 50° Northeast 462 532 27,700 1,068 Climbing Washington Center
Sun 13:36:13 37.3378 -77.1122 49° Northeast 477 549 28,800 1,017 Climbing Washington Center
Sun 13:37:14 37.4408 -77.0356 31° Northeast 465 535 29,700 885 Climbing Washington Center
Sun 13:38:15 37.5669 -76.9411 31° Northeast 472 543 30,600 857 Climbing Washington Center
Sun 13:39:13 37.6786 -76.8564 31° Northeast 472 543 31,400 807 Climbing Washington Center
Sun 13:40:14 37.7942 -76.7717 30° Northeast 478 550 32,200 689 Climbing Washington Center
Sun 13:41:15 37.9075 -76.6867 31° Northeast 473 544 32,800 393 Climbing Washington Center
Sun 13:42:16 38.0189 -76.6039 30° Northeast 473 544 33,000 153 Climbing Washington Center
Sun 13:43:13 38.1300 -76.5208 30° Northeast 473 544 33,100 -407 Climbing Washington Center
Sun 13:44:14 38.2453 -76.4350 30° Northeast 473 544 32,200 -1,220 Descending Washington Center
Sun 13:45:16 38.3439 -76.3514 34° Northeast 452 520 30,600 -1,563 Descending Washington Center
Sun 13:46:13 38.4361 -76.2622 37° Northeast 427 491 29,100 -1,513 Descending Washington Center
Sun 13:47:15 38.5219 -76.1808 37° Northeast 406 467 27,600 -1,033 Descending Washington Center
Sun 13:48:15 38.6017 -76.1069 36° Northeast 391 450 27,000 -298 Descending Washington Center
Sun 13:49:16 38.6958 -76.0253 34° Northeast 391 450 27,000  Level Washington Center
Sun 13:50:14 38.7897 -75.9378 36° Northeast 397 457 27,000  Level Washington Center
Sun 13:51:14 38.8817 -75.8475 37° Northeast 402 463 27,000  Level Washington Center
Sun 13:52:15 38.9778 -75.7572 36° Northeast 410 472 27,000  Level Washington Center
Sun 13:53:15 39.0717 -75.6719 35° Northeast 415 478 27,000 -500 Level Washington Center
Sun 13:54:15 39.1656 -75.5783 38° Northeast 420 483 26,000 -1,322 Descending Washington Center
Sun 13:55:13 39.2592 -75.4925 35° Northeast 420 483 24,400 -1,563 Descending Washington Center
Sun 13:56:14 39.3489 -75.4117 35° Northeast 409 471 22,900 -1,488 Descending Washington Center
Sun 13:57:14 39.4403 -75.3336 33° Northeast 398 458 21,400 -1,500 Descending Washington Center
Sun 13:58:14 39.5297 -75.2525 35° Northeast 398 458 19,900 -1,488 Descending Washington Center
Sun 13:59:15 39.6169 -75.1714 36° Northeast 393 452 18,400 -1,361 Descending Washington Center
Sun 14:00:13 39.7103 -75.0872 35° Northeast 382 440 17,200 -1,300 Descending Washington Center
Sun 14:01:15 39.7850 -75.0217 34° Northeast 373 429 15,800 -1,426 Descending Washington Center
Sun 14:02:15 39.8783 -74.9400 34° Northeast 373 429 14,300 -1,488 Descending Washington Center
Sun 14:03:16 39.9500 -74.8500 44° Northeast 343 395 12,800 -1,438 Descending New York TRACON
Sun 14:04:16 40.0167 -74.7667 44° Northeast 340 391 11,400 -1,350 Descending New York TRACON
Sun 14:05:16 40.0833 -74.6667 49° Northeast 338 389 10,100 -700 Descending New York TRACON
Sun 14:06:16 40.1500 -74.5833 44° Northeast 331 381 10,000 -50 Descending New York TRACON
Sun 14:07:16 40.2000 -74.5000 52° Northeast 329 379 10,000  Level New York TRACON
Sun 14:08:16 40.2667 -74.4167 44° Northeast 329 379 10,000  Level New York TRACON
Sun 14:09:16 40.3333 -74.3333 44° Northeast 330 380 10,000 -474 Level New York TRACON
Sun 14:10:10 40.3833 -74.2667 45° Northeast 283 326 9,100 -1,368 Descending New York TRACON
Sun 14:11:10 40.4500 -74.1833 44° Northeast 272 313 7,400 -1,200 Descending New York TRACON
Sun 14:12:10 40.5000 -74.1167 45° Northeast 255 293 6,700 -1,200 Descending New York TRACON
Sun 14:13:10 40.5500 -74.0667 37° Northeast 214 246 5,000 -1,700 Descending New York TRACON
Sun 14:14:10 40.6000 -74.0333 27° Northeast 203 234 3,300 -1,150 Descending New York TRACON
Sun 14:15:10 40.6333 -74.0000 37° Northeast 170 196 2,700 -474 Descending New York TRACON
Sun 14:16:04 40.6667 -73.9667 37° Northeast 180 207 2,400 -684 Descending New York TRACON
Sun 14:17:04 40.7167 -73.9333 27° Northeast 160 184 1,400 -857 Descending New York TRACON
Sun 14:18:10 40.7500 -73.9000 37° Northeast 151 174 600 -727 Descending New York TRACON
Sun 14:20:00 40.7667 -73.8667 30° Northeast  Level FlightAware Approximate

Login

Don't have an account? Register now (free) for customized features, flight alerts, and more!